Simultaneous Nadir Overpasses (SNOs) Predictions

Prediction of SNOs between GOES-17 and NOAA-20 Satellite Orbit:

Table of predicted SNOs for the next 14.0 days since TLE Epoch: 1/13/2024
Index Date Time (GOES-17) GOES-17 Lat,Lon NOAA-20 Lat,Lon Distance(km) Time Diff (sec)
1 01/13/2024 08:11:36 0.02,-104.68 -0.57,-102.01 303.60 80
2 01/14/2024 20:33:31 -0.02,-104.65 -0.60,-107.31 302.54 80
3 01/15/2024 20:17:26 -0.02,-104.66 0.41,-102.78 214.58 80
4 01/17/2024 08:39:12 0.03,-104.69 0.79,-108.04 382.04 80
5 01/18/2024 08:17:46 0.03,-104.69 -0.22,-103.50 135.00 80
6 01/19/2024 20:39:42 -0.03,-104.66 -0.94,-108.80 471.12 80
7 01/20/2024 20:23:36 -0.03,-104.67 0.08,-104.27 46.11 80
8 01/23/2024 08:26:37 0.04,-104.70 0.09,-104.99 33.42 80
9 01/24/2024 08:05:12 0.04,-104.70 -0.93,-100.46 483.68 80
10 01/25/2024 20:27:06 -0.05,-104.67 -0.27,-105.75 122.30 80
11 01/26/2024 20:10:59 -0.05,-104.68 0.70,-101.21 395.14 80
